TimeCST,TemperatureF,Dew PointF,Humidity,Sea Level PressureIn,VisibilityMPH,Wind Direction,Wind SpeedMPH,Gust SpeedMPH,PrecipitationIn,Events,Conditions,WindDirDegrees,DateUTC
12:53 AM,44.1,24.1,45,30.14,10.0,South,11.5,-,N/A,,Clear,190,2012-12-14 06:53:00
1:53 AM,44.1,23.0,43,30.14,10.0,South,11.5,-,N/A,,Clear,180,2012-12-14 07:53:00
2:53 AM,43.0,23.0,45,30.14,10.0,South,10.4,-,N/A,,Clear,190,2012-12-14 08:53:00
3:53 AM,45.0,21.9,40,30.12,10.0,South,13.8,-,N/A,,Clear,190,2012-12-14 09:53:00
4:53 AM,46.0,21.0,37,30.12,10.0,South,15.0,-,N/A,,Clear,190,2012-12-14 10:53:00
5:53 AM,46.9,19.9,34,30.13,10.0,South,16.1,-,N/A,,Clear,190,2012-12-14 11:53:00
6:53 AM,46.9,19.9,34,30.14,10.0,South,15.0,-,N/A,,Clear,190,2012-12-14 12:53:00
7:53 AM,46.9,21.0,36,30.13,10.0,South,13.8,-,N/A,,Clear,180,2012-12-14 13:53:00
8:53 AM,48.0,23.0,37,30.12,10.0,South,13.8,-,N/A,,Partly Cloudy,170,2012-12-14 14:53:00
9:53 AM,50.0,24.1,36,30.12,10.0,South,10.4,-,N/A,,Clear,180,2012-12-14 15:53:00
10:53 AM,52.0,24.1,34,30.12,10.0,South,12.7,21.9,N/A,,Overcast,180,2012-12-14 16:53:00
11:53 AM,53.1,26.1,35,30.09,10.0,South,11.5,-,N/A,,Overcast,180,2012-12-14 17:53:00
12:53 PM,53.1,28.0,38,30.04,10.0,South,13.8,-,N/A,,Overcast,170,2012-12-14 18:53:00
1:53 PM,54.0,27.0,35,29.99,10.0,South,12.7,-,N/A,,Overcast,170,2012-12-14 19:53:00
2:53 PM,54.0,24.1,31,29.96,10.0,South,16.1,-,N/A,,Overcast,170,2012-12-14 20:53:00
3:53 PM,54.0,23.0,30,29.93,10.0,SSE,12.7,20.7,N/A,,Overcast,150,2012-12-14 21:53:00
4:53 PM,48.0,35.1,61,29.94,6.0,South,17.3,23.0,0.01,Rain,Rain,170,2012-12-14 22:53:00
5:53 PM,46.0,37.9,73,29.90,10.0,SE,16.1,25.3,0.01,,Overcast,140,2012-12-14 23:53:00
6:53 PM,45.0,39.0,80,29.92,8.0,South,10.4,-,0.02,Rain,Light Rain,170,2012-12-15 00:53:00
7:53 PM,45.0,37.9,76,29.90,10.0,SE,10.4,-,0.00,,Overcast,140,2012-12-15 01:53:00
8:53 PM,46.0,37.0,71,29.83,10.0,SE,19.6,27.6,0.02,,Overcast,140,2012-12-15 02:53:00
9:53 PM,46.0,39.0,76,29.79,10.0,SSE,18.4,28.8,N/A,Thunderstorm,Overcast,150,2012-12-15 03:53:00
10:02 PM,44.6,39.2,81,29.79,10.0,SSE,18.4,39.1,0.01,,Overcast,150,2012-12-15 04:02:00
10:20 PM,44.6,39.2,81,29.78,8.0,SSE,15.0,28.8,0.02,Rain,Light Rain,150,2012-12-15 04:20:00
10:53 PM,46.0,41.0,83,29.77,10.0,North,-9999.0,-,0.02,,Overcast,0,2012-12-15 04:53:00
11:53 PM,48.9,43.0,80,29.74,9.0,South,23.0,33.4,N/A,,Overcast,170,2012-12-15 05:53:00